DateTimeUTC,F1_A11,F1_S11,BsB_S11,BsG_S11,BsR_S11,BbsB_S11,BbsG_S11,BbsR_S11,BaB_A11,BaG_A11,BaR_A11,Tu_S11,T_S11,Uu_S11,U_S11,P_S11,T1_A11
2021-06-06T16:00:00Z,00000200,20000000,,,,,,,0000.19,-000.08,0000.01,20.6,26.7,08.5,05.9,0673.4,31.2
2021-06-06T16:01:00Z,00000200,20000000,,,,,,,0000.14,0000.54,0000.00,20.6,26.7,08.5,05.9,0673.4,31.2
2021-06-06T16:02:00Z,00000200,20000000,,,,,,,0000.11,-000.10,-000.09,20.6,26.7,08.6,05.9,0673.4,31.2
2021-06-06T16:03:00Z,00000200,60000000,,,,,,,0000.43,-000.03,0000.31,20.6,26.8,08.6,05.9,0673.4,31.2
2021-06-06T16:04:00Z,00000200,40000000,0000.62,0000.31,0000.66,0000.43,0000.11,0000.03,-000.23,0000.53,0000.21,20.7,26.6,08.7,06.1,0674.3,31.2
2021-06-06T16:05:00Z,00000200,00000000,0000.94,0000.28,0000.05,0000.03,-000.03,-000.06,0001.09,0000.64,0000.94,20.7,26.6,08.6,06.0,0674.4,31.2
2021-06-06T16:06:00Z,00000200,00000000,0000.17,0000.39,0000.32,0000.57,0000.13,0000.16,0000.01,0000.23,-000.50,20.7,26.6,08.7,06.1,0674.4,31.2
2021-06-06T16:07:00Z,00000200,00000000,-000.35,0000.73,0000.11,0000.44,-000.18,0000.01,0000.75,0000.69,0000.62,20.7,26.6,08.8,06.2,0674.3,31.2
2021-06-06T16:08:00Z,00000200,00000000,-000.36,0000.45,0000.28,0000.79,0000.06,-000.07,0000.22,0000.15,0000.13,20.7,26.5,08.9,06.2,0674.3,31.2
2021-06-06T16:09:00Z,00000200,00000000,-000.35,0000.50,0000.70,0000.04,-000.12,0000.11,0000.14,0000.34,0000.53,20.7,26.5,08.7,06.1,0674.4,31.2
2021-06-06T16:10:00Z,00000200,00000000,0000.84,0000.26,-000.05,0000.36,0000.20,-000.34,0000.39,0000.05,-000.04,20.7,26.5,08.8,06.1,0674.3,31.2
2021-06-06T16:11:00Z,00000200,00000000,0000.88,0000.55,0000.26,0000.22,0000.04,0000.06,0000.68,0000.52,0000.35,20.7,26.5,08.8,06.2,0674.4,31.2
2021-06-06T16:12:00Z,00000200,00000000,0000.40,0000.33,0000.17,0000.50,0000.26,0000.02,0000.63,0000.44,0000.35,20.7,26.5,08.9,06.2,0674.3,31.2
2021-06-06T16:13:00Z,00000200,00000000,0000.58,0000.42,0000.24,0000.49,-000.03,-000.22,0000.08,0000.27,0000.33,20.7,26.5,08.9,06.2,0674.3,31.2
2021-06-06T16:14:00Z,00000200,00000000,0000.57,0000.26,0000.31,-000.03,-000.04,-000.04,0000.76,0000.60,0000.15,20.7,26.5,09.0,06.3,0674.3,31.2
2021-06-06T16:15:00Z,00000200,00000000,0000.72,0000.60,-000.04,-000.01,0000.26,-000.22,0000.63,0000.65,0000.42,20.7,26.5,09.1,06.4,0674.4,31.2
2021-06-06T16:16:00Z,00000200,00000000,0000.51,0000.49,0000.36,0000.79,0000.11,-000.06,-000.06,0000.02,-000.01,20.7,26.5,08.9,06.2,0674.3,31.2
2021-06-06T16:17:00Z,00000200,00000000,0000.14,0000.11,0000.09,0000.22,0000.10,0000.01,0000.81,0000.86,0000.84,20.7,26.5,09.0,06.3,0674.4,31.2
2021-06-06T16:18:00Z,00000200,00000000,0000.59,0000.50,0000.42,0000.20,0000.15,0000.27,0000.08,-000.04,0000.13,20.7,26.5,09.1,06.4,0674.3,31.2
2021-06-06T16:19:00Z,00000200,00000000,0001.11,0000.43,0000.29,0000.02,0000.04,-000.15,0000.45,0000.40,0000.08,20.7,26.5,09.1,06.4,0674.3,31.2
2021-06-06T16:20:00Z,00000200,00000000,0000.88,0000.17,0000.11,0000.24,0000.02,0000.01,0000.62,0000.41,0000.56,20.7,26.5,09.0,06.3,0674.3,31.2
2021-06-06T16:21:00Z,00000200,00000000,0000.34,0000.35,0000.31,0000.05,-000.03,0000.06,-000.01,0000.18,0000.04,20.6,26.5,08.9,06.3,0674.3,31.2
2021-06-06T16:22:00Z,00000200,00000000,0000.85,0000.52,0000.28,0000.31,0000.43,0000.08,0000.65,0001.01,0000.51,20.6,26.5,08.9,06.2,0674.3,31.2
2021-06-06T16:23:00Z,00000200,00000000,0000.70,0000.10,0000.25,0000.00,-000.13,0000.21,0000.42,-000.17,0000.06,20.6,26.5,09.0,06.3,0674.3,31.2
2021-06-06T16:24:00Z,00000200,00000000,-000.15,0000.67,0000.35,0000.43,0000.13,0000.10,0000.27,0000.31,-000.06,20.6,26.5,08.9,06.2,0674.3,31.2
2021-06-06T16:25:00Z,00000200,00000000,0000.51,0000.16,-000.04,-000.03,-000.05,-000.33,0000.29,0000.34,0000.51,20.6,26.5,08.8,06.2,0674.3,31.2
2021-06-06T16:26:00Z,00000200,00000000,-000.21,0000.51,0000.26,0000.20,0000.18,0000.25,0000.37,0000.08,0000.17,20.6,26.5,08.8,06.2,0674.3,31.2
2021-06-06T16:27:00Z,00000200,00000000,-000.46,0000.44,0000.02,0000.25,-000.03,-000.14,0000.48,0000.46,0000.10,20.6,26.5,09.0,06.3,0674.4,31.2
2021-06-06T16:28:00Z,00000200,00000000,0000.73,0000.42,0000.26,0000.68,0000.05,0000.02,0000.12,0000.18,0000.53,20.6,26.5,08.9,06.3,0674.3,31.2
2021-06-06T16:29:00Z,00000200,00000000,0000.62,0000.30,0000.32,0000.18,-000.09,0000.11,0000.54,0000.71,0000.43,20.6,26.5,08.9,06.2,0674.2,31.2
2021-06-06T16:30:00Z,00000200,00000000,0000.11,0000.58,0000.41,-000.15,-000.04,0000.21,0000.99,0000.97,0000.19,20.6,26.5,09.0,06.3,0674.3,31.2
2021-06-06T16:31:00Z,00000200,00000000,0000.29,0000.12,0000.24,-000.07,-000.21,0000.12,0000.36,0000.11,0000.23,20.6,26.5,09.0,06.3,0674.3,31.2
2021-06-06T16:32:00Z,00000200,00000000,0000.03,0000.20,0000.32,0000.06,-000.20,0000.02,0000.46,-000.01,0000.10,20.6,26.5,09.1,06.4,0674.3,31.2
2021-06-06T16:33:00Z,00000200,00000000,0000.46,0000.05,0000.21,0000.36,-000.06,-000.28,0000.14,0000.24,0000.26,20.6,26.5,09.1,06.4,0674.3,31.2
2021-06-06T16:34:00Z,00000200,00000000,-000.03,0000.39,0000.24,0000.14,0000.12,0000.11,0000.63,0000.84,0000.58,20.6,26.5,09.1,06.4,0674.2,31.2
2021-06-06T16:35:00Z,00000200,00000000,0000.62,0000.41,0000.19,0000.04,0000.13,-000.19,0000.29,0000.42,0000.13,20.6,26.5,09.2,06.5,0674.3,31.2
2021-06-06T16:36:00Z,00000200,00010000,0000.18,0000.65,0000.07,0000.36,0000.16,0000.02,0000.62,0000.21,0000.57,20.6,26.5,09.3,06.5,0674.3,31.2
2021-06-06T16:37:00Z,00000200,00000000,0000.34,0000.50,0000.28,0000.15,0000.01,0000.09,0000.34,0000.31,0000.12,20.6,26.5,09.3,06.5,0674.3,31.2
2021-06-06T16:38:00Z,00000200,00000000,0000.49,0000.33,0000.41,-000.06,0000.09,-000.31,0000.39,0000.64,0000.40,20.6,26.5,09.3,06.5,0674.3,31.2
2021-06-06T16:39:00Z,00000200,00000000,0000.47,0000.23,0000.43,0000.22,0000.09,-000.11,0000.16,0000.30,0000.03,20.6,26.5,09.3,06.5,0674.2,31.2
2021-06-06T16:40:00Z,00000200,00000000,-000.26,0000.20,0000.20,0000.59,0000.07,0000.12,0000.42,0000.31,0000.17,20.6,26.5,09.3,06.5,0674.3,31.2
2021-06-06T16:41:00Z,00000200,00000000,0000.57,0000.29,0000.11,0000.00,0000.12,-000.07,0000.55,0000.24,0000.57,20.6,26.5,09.3,06.5,0674.3,31.2
2021-06-06T16:42:00Z,00000200,00000000,0000.80,0000.44,0000.17,0000.62,-000.02,0000.19,0000.31,0000.13,0000.18,20.6,26.5,09.4,06.6,0674.2,31.2
2021-06-06T16:43:00Z,00000200,00000000,0000.59,0000.21,0000.33,0000.60,0000.04,0000.12,0000.56,0000.29,0000.17,20.5,26.5,09.2,06.5,0674.2,31.2
2021-06-06T16:44:00Z,00000200,00000000,-000.00,0000.23,0000.16,0000.17,0000.02,-000.06,0000.28,0000.24,0000.23,20.5,26.5,09.0,06.3,0674.2,31.2
2021-06-06T16:45:00Z,00000200,00000000,0000.46,0000.35,0000.16,-000.45,0000.09,0000.03,0000.35,0000.77,0000.12,20.5,26.5,09.2,06.5,0674.2,31.2
2021-06-06T16:46:00Z,00000200,00000000,0001.00,0000.20,0000.11,0000.50,0000.04,0000.25,0000.51,0000.32,0000.35,20.5,26.4,09.3,06.5,0674.2,31.2
2021-06-06T16:47:00Z,00000200,00000000,-000.05,0000.11,0000.06,0000.37,-000.03,-000.26,0000.11,0000.37,0000.46,20.5,26.5,09.4,06.5,0674.2,31.2
2021-06-06T16:48:00Z,00000200,00000000,0000.02,0000.25,0000.40,0000.49,-000.03,-000.03,0000.64,0000.11,0000.21,20.5,26.5,09.2,06.4,0674.2,31.2
2021-06-06T16:49:00Z,00000200,00000000,0000.65,0000.21,0000.21,0000.46,0000.04,0000.19,0000.39,0000.47,0000.18,20.5,26.4,09.3,06.5,0674.2,31.2
2021-06-06T16:50:00Z,00000200,00000000,0000.27,0000.44,0000.08,0000.18,0000.08,-000.25,0000.18,0000.30,0000.26,20.5,26.5,09.3,06.5,0674.2,31.2
2021-06-06T16:51:00Z,00000200,00000000,0000.09,0000.41,0000.01,-000.28,0000.00,-000.14,0000.27,0000.15,0000.22,20.5,26.4,09.3,06.5,0674.2,31.2
2021-06-06T16:52:00Z,00000200,00000000,0000.10,-000.17,0000.35,0000.35,-000.19,0000.02,0000.63,0000.56,0000.58,20.5,26.4,09.4,06.6,0674.3,31.2
2021-06-06T16:53:00Z,00000200,00000000,0000.10,0000.03,0000.38,0000.54,0000.08,-000.29,0000.08,0000.50,-000.15,20.5,26.4,09.4,06.5,0674.1,31.2
2021-06-06T16:54:00Z,00000200,00000000,-000.12,0000.65,-000.30,0000.15,0000.16,0000.06,0000.73,0000.04,0000.72,20.5,26.4,09.3,06.5,0674.2,31.2
2021-06-06T16:55:00Z,00000200,00000000,0000.57,0000.39,0000.63,0000.08,0000.01,0000.38,0000.17,0000.22,-000.04,20.5,26.4,09.4,06.6,0674.2,31.2
2021-06-06T16:56:00Z,00000200,00000000,0000.22,0000.16,0000.32,0000.70,0000.06,0000.08,0000.41,0000.46,0000.08,20.5,26.4,09.3,06.5,0674.2,31.2
2021-06-06T16:57:00Z,00000200,40000000,,,,,,,-000.18,0000.15,0000.17,20.5,26.5,09.8,06.8,0674.2,31.2
2021-06-06T16:58:00Z,00000200,60000000,,,,,,,0000.18,-000.24,0000.06,20.3,26.5,09.3,06.4,0673.2,31.2
2021-06-06T16:59:00Z,00000200,20000000,,,,,,,0000.17,0000.31,-000.19,20.3,26.6,09.2,06.3,0673.2,31.2
